timestamp,gas_concentrations,,corrected_fluxes_and_quality_flags,,,,,,,,,,storage_terms,,,turbulence,,,footprint,,
ISOdate,CO2_1_1_1,H2O_1_1_1,Tau_1_1_1,QcTau_1_1_1,H_1_1_1,QcH_1_1_1,LE_1_1_1, QcLE_1_1_1,Fc_1_1_1, QcFc_1_1_1,E_1_1_1, QcE_1_1_1,Sa_1_1_1,Sw_1_1_1,Sc_1_1_1,ustar_1_1_1,MO_length_1_1_1,ZL_1_1_1,Fetchmax_1_1_1,Fetch70_1_1_1,Fetch90_1_1_1
yyyymmddHHMM,[µmol+1mol_a-1],[mmol+1mol_a-1],[kg+1m-1s-2],[#],[W+1m-2],[#],[W+1m-2],[#],[µmol+1s-1m-2],[#],[mmol+1s-1m-2],[#],[W+1m-2],[W+1m-2],[µmol+1s-1m-2],[m+1s-1],[m],[#],[m],[m],[m]
201811040030,417.90661299425443,3.6906543364807671,4.84265048516220598E-002,0,-22.013711298394341,0,15.510395296818656,0,1.0135375018106707,0,0.34507230815249534,0,-9999.,-9999.,-9999.,0.20055441246775729,30.861660542118837,0.69989753048191072,108.62648355129345,198.60385657177844,297.54476750553698
201811040100,418.36046039216120,3.7174439646153212,2.31176187024904195E-002,0,-11.732657082403117,0,10.755108195137568,0,0.70159103414621982,0,0.23923993200982291,0,-3.9091820189593744,0.97551068363495386,0.36761572578721807,0.13851565369409533,19.079492131151856,1.1321056059313450,337.29933570258618,3208.0000000000000,-9999.
201811040130,418.63164694800037,3.7201452285155909,5.18403163051799690E-002,1,-21.522889753960804,0,18.605248872721589,0,1.3561452326752055,0,0.41379876282054390,0,-3.7309126956941863,9.84477092220178429E-002,0.21981658669931775,0.20735156365721247,34.892266409057953,0.61904835148205484,112.64433358670276,205.94976786405135,308.55028122166004
201811040200,419.37844919503306,3.7976864811655857,5.59205618768279025E-002,0,-22.818127013735719,0,20.695014242464357,0,1.5738860505657370,0,0.46012857087583925,0,-8.0399065948404189,2.8308870030486077,0.60619005781463065,0.21520888044420583,36.801414736580483,0.58693395769184042,111.14685873502241,203.21190624007147,304.44846560522961
201811040230,419.76912338597748,3.8558321139381961,0.10330647450017570,0,-27.417212577367096,0,19.899354577340098,0,1.5801385560252446,0,0.44227551700473205,0,-9.1665456623563060,2.1270977131113011,0.31764276607942332,0.29226879520057725,76.730428474496307,0.28150500954363128,114.11712621344252,208.64250250884797,312.58448840006162
201811040300,419.11764968374348,3.7144900540715691,0.14073004100070544,0,-21.321223585145951,0,5.5536460682943263,0,0.41396651122750394,0,0.12343667067165652,0,0.69490238106116708,-5.1713854997913096,-0.52978344988675830,0.34108438596640978,156.85401666492064,0.13770766257228209,113.03787121188874,206.66928015527938,309.62824174622546
201811040330,419.63044424733789,3.7069985759374000,0.15348520431738821,0,-27.283115596887964,0,3.5569175592954951,0,0.34230011418407291,0,7.90445233937203118E-002,0,-3.9118462923164388,-0.27435193553336401,0.41733221495808748,0.35606769566518492,139.46932006421866,0.15487277051364615,114.54123395832771,209.41790672872577,313.74618521858724
201811040400,420.05431075568350,3.7376507253874642,0.11476710966652079,0,-27.275620600331980,0,1.9375582298100267,0,0.48454860467234440,0,4.30476902434008685E-002,0,-5.9259091266313240,1.1240880879232464,0.34535329521390384,0.30772484120550864,90.065905719301909,0.23982438001920778,107.10738877454666,195.82646682945568,293.38373156486273
201811040430,420.10448411571747,3.7641326897411798,0.11129569515896405,1,-23.353520056518317,0,1.3382662800213481,0,0.30506625968070389,0,2.97273770075434200E-002,0,-4.6717578040786174,0.97213179562649532,4.09130816837480135E-002,0.30291302101191231,100.34138604355707,0.21526511494094455,112.32122132039868,205.35901558987564,307.66522666578618
201811040500,420.16175620334360,3.7947714752912765,0.12630097693413503,0,-32.020055935141023,0,2.6401862368162337,0,0.68777050565722186,0,5.86418728507138304E-002,0,-2.3528800408381394,1.1253841356337313,4.67245927600776698E-002,0.32261004170248575,88.416245039411876,0.24429899720771583,104.50619796356051,191.07066041971416,286.25866694167672
201811040530,420.43200036425463,3.8310949169704651,0.15029274544260976,0,-27.430333792490675,0,3.2929962697887176,0,0.57368053760056226,0,7.31367754430134326E-002,0,-1.6564276094245274,1.3348291153563916,0.22056650838748787,0.35184886389395442,133.90911200282997,0.16130343691281829,109.68302686377653,200.53555471420410,300.43880332437914
201811040600,420.80963181923721,3.8346386389504437,0.13044521684042551,0,-31.124024656322192,0,3.6981610088956791,0,0.66530866882385298,0,8.21172532650634585E-002,0,-5.5459777667476331,0.13039778616906825,0.30855126884789452,0.32761482974350375,95.288902613401220,0.22667907182889757,102.98207726923164,188.28408169711713,282.08386423410013
201811040630,420.98423860040373,3.8471522868369741,0.10233019411695929,0,-21.617301566446926,0,1.8080422463370394,0,0.30921970239397178,0,4.01411337990457903E-002,0,-3.9064455281044816,0.46086939865914783,0.14276972050923756,0.29006443742800408,95.228914974330650,0.22682186398765933,113.56229840694816,207.62810032532329,311.06472908086198
201811040700,421.02735101762943,3.8373448569386888,6.97679909231949946E-002,1,-16.559403440659846,0,1.1257683956143576,0,-7.63534948759481136E-003,0,2.49905232700066600E-002,0,-3.1693855892825464,-0.36140228959864268,3.52666622133058494E-002,0.23945637232825653,69.936277921704004,0.30885258183430808,113.28054789727874,207.11297053393139,310.29297078441880
201811040730,421.31949075148259,3.8674330074764489,0.12789083795949654,0,-26.806309117608158,0,0.39843262835296778,2,0.38287129553887622,0,8.84384775707195391E-003,2,-2.3122540405050236,1.1092002839836499,0.23905149799719261,0.32415375222081300,107.17036578407408,0.20154825302658286,120.59025998882615,220.47745555037923,330.31540466708122
201811040800,421.63012412286139,3.9433560050888663,0.14697902151011777,0,-16.848966052809143,0,-1.7202904542971464,2,-0.17788048261949463,0,-3.81851579031798477E-002,2,0.37339926177999755,2.7983951823681181,0.25414210298827528,0.34753729885422036,210.11695260973127,0.10279989183033500,122.33766346241799,223.67226640585895,335.10181349935038
201811040830,421.80568440909110,4.0387142490924983,0.17334348358679230,0,-19.901980293830594,0,1.4603021518432338,1,0.70157126249706203,0,3.24158150208647550E-002,1,1.2389907425335247,3.5134474053291216,0.14358719519422003,0.37748950841942958,227.93714929435131,9.47629645578588753E-002,107.63994305218500,196.80014589845385,294.84248023777866
201811040900,421.46128448758822,4.1005493314430934,0.29957167123279504,0,-24.596939802927000,0,1.9104181002805998,0,1.0055037022249758,0,4.24100169765609519E-002,0,1.4926040966009400,2.2773144038832513,-0.28157306964190243,0.49634912667602110,419.21617681521258,5.15247292318137887E-002,122.67887392636585,224.29610795745160,336.03644182245063
201811040930,421.20663308514429,4.1834607881531252,0.24477741055352681,0,-28.968467206647656,0,-0.79119165167379535,2,0.45102218108046110,0,-1.75643915507713889E-002,2,0.65870467404774091,3.0521869497000944,-0.20811053789419545,0.44876545003842577,263.02608044686428,8.21211340080915120E-002,117.08926710971714,214.07652398295849,320.72564277663821
201811041000,420.97234691994493,4.3156399666312097,0.20751820860034212,0,-24.426640659420141,0,0.68808713723844983,2,0.60601489331911784,0,1.52769521046893040E-002,2,2.4191286429643579,4.8624417055131142,-0.19135124001358220,0.41333711351487779,243.69839366415161,8.86341500870442278E-002,110.91522221052954,202.78840079661813,303.81397727814061
201811041030,420.07590811853885,4.5352782693692912,0.43150019748903345,0,-29.690778626426017,0,1.5790604173340443,1,1.5335873043460311,0,3.50659421658676071E-002,1,5.3968188496310878,8.0708787995691136,-0.73150981537844595,0.59631732093207424,602.02284704311876,3.58790369935128722E-002,120.24575269586643,219.84758634388322,329.37174581855322
201811041100,419.20924946916887,4.6530228169259793,0.60135463863933081,0,-25.866058776689023,1,-0.55881487172399069,2,1.6844049955216447,1,-1.24115135671736786E-002,2,4.0370217253395344,4.3209021768588745,-0.70638016453961927,0.70439536270490832,1138.5703000026515,1.89711605861752237E-002,113.96932267182886,208.37227049525637,312.17963160098128
201811041130,418.67089879704247,4.7481501691922263,0.87038343264531759,0,-19.474989370261127,0,1.7351943766622351,2,1.2079092021605902,0,3.85467469002465854E-002,2,4.7679354000259337,3.4863459514445614,-0.43829844660608974,0.84792445755786250,2637.0812314149271,8.19087396424664216E-003,112.84620714844530,206.31885711918702,309.10324418272137
201811041200,418.46754820360127,4.9399786285592713,0.87726268567720922,0,-6.0231380968670223,1,14.547671226489381,1,0.78698000967299631,0,0.32321823055968341,1,3.6104239448458455,7.0231163774539818,-0.16541109672689022,0.85167755131867240,8638.6039304309379,2.50040402059762941E-003,117.57440557610957,214.96351182650179,322.05451219661313
201811041230,418.29063401854876,5.0805811160558445,1.0921851999755325,0,-2.4123299388669559,2,11.923901597913670,0,1.4483670951680725,0,0.26495333067218968,0,2.7946931717229804,5.1432713539889310,-0.14380039860717697,0.95067257084537593,29992.404941718494,7.20182327558370602E-004,117.80992440338569,215.39411535763989,322.69963475249489
201811041300,418.39215618622558,4.9873195715804703,1.4113226410641362,0,4.8584049830730383,0,34.184373453153157,1,1.1508422055701204,0,0.75967134939218683,1,2.7056564558548875,-3.4084385614391506,8.24540271546140013E-002,1.0810891882295346,-21893.839845427548,-9.86578880292261068E-004,120.56832428640705,220.43735009032366,330.25531937974631
201811041330,418.58586867723079,4.7609078828455846,1.4788635951057483,0,26.278597753973010,1,55.590976530730160,1,2.6116397220732788,0,1.2354114771007834,1,0.52838832678585013,-8.2729080171514422,0.15729840035746567,1.1067154138014272,-4341.9617729834436,-4.97470984991151520E-003,117.17528938566937,214.23380013879694,320.96127111755209
201811041400,419.85259938767399,4.9409807726297901,1.5112161035410832,0,18.885310084376009,1,-153.77927405404336,2,8.7270654773831389,2,-3.4150003282912289,2,-18.104768212984190,6.6036300435675521,1.0316007366935600,1.1171710345645325,-6215.2707598549159,-3.47531118668500515E-003,119.69750603554709,218.84521659451539,327.87001327831706
201811041430,417.35016897532887,5.1726344933391628,1.6317477433832086,0,24.711447943780350,0,0.32028553067926890,2,4.3993339467199899,2,7.10923478718503230E-003,2,-11.970269743387906,8.5125550109403374,-2.0411184056776612,1.1600121169834892,-5316.6916492757746,-4.06267683455787711E-003,121.05345046947217,221.32431547602707,331.58415515378476
201811041500,419.01795274155432,5.2544271305908934,1.3602416183478607,0,17.317158939500732,0,27.655572677695684,1,-3.3672112529583273,0,0.61369995433200908,1,-6.4759902094634922,3.0080661035520597,1.3610884276981479,1.0588405596664934,-5768.1128308046009,-3.74472563793225776E-003,119.77881328580970,218.99387217961288,328.09272643338738
201811041530,422.54994208178147,5.2895301561057160,1.2893953501110875,0,11.761061428426869,0,-31.022068950549819,2,16.288265357895465,1,-0.68835091841820539,2,-1.9814657306524868,1.2909589260260583,2.8822151492749470,1.0309515859129497,-7837.2918984307653,-2.75605404008556808E-003,119.73919258356550,218.92143289953563,327.98419919166651
201811041600,420.67601231118732,5.3034422267509704,1.5974364868405575,0,15.382192935260710,0,-24.147071988374535,2,30.694757895931374,1,-0.53585020305489439,2,2.2962387268568714,0.51108227813130724,-1.5276760890706325,1.1480814150660781,-8271.8486571580179,-2.61126634386722126E-003,113.41284753161713,207.35485646030619,310.65535997951503
201811041630,423.45908589301160,5.2963868653303177,1.4036933231013089,0,3.8893312358449648,0,92.059604910008304,0,-0.14262021051972135,2,2.0426423459237135,0,-3.2146406945062109,-0.25921650449189709,2.2687743159317759,1.0762225919501291,-26938.347963369815,-8.01830907722003478E-004,115.07942030377596,210.40188301393638,315.22036099778791
201811041700,426.93476811576141,5.4106941793994769,0.75115601076422955,0,-3.0581146146981686,2,-5.8648329277317215,2,7.2250110995305477,1,-0.13012397826869615,2,-1.2425750992443654,4.1980509326326789,2.8321446669923169,0.78747374731160591,13415.468827823226,1.61008163614843902E-003,111.10434902013898,203.13418492348637,304.33202491030698
201811041730,427.71173210984136,5.5541396939893000,0.79043270850118841,0,1.4390196627252607,2,21.621043747909948,1,1.3527945402126915,2,0.47979423957406170,1,4.4175321748407264,5.2591751873730210,0.63213513861053738,0.80844118730042192,-30830.261833548295,-7.00610332686040340E-004,102.38561852605646,187.19356488383366,280.45007132962024
201811041800,433.29726052162488,5.6820841271904916,1.0453808889558018,0,-10.438228090934663,0,72.530597784515578,0,-6.4416715994770657,1,1.6097898889754987,0,3.9993163815403281,4.6814708299659653,4.5360008853932134,0.93060176602244571,6477.3026677225225,3.33472142773818441E-003,105.41135260551815,192.72557178947923,288.73802573791971
201811041830,439.78643390850874,5.7650663604247860,0.80388627150580272,0,-10.421247066708197,0,-9999.,-9999.,-23.312393003832110,1,-9999.,-9999.,2.1820688627928639,-866.16574598725379,5.2626282227236292,0.81663597023078205,4381.0803832796746,4.93029072975608145E-003,100.54066153319320,183.82039508202658,275.39644829449736
201811041900,474.55474628004401,5.7895686420229699,1.0357551398060378,0,-11.259464510606110,0,-9999.,-9999.,-7.1876048137590622,2,-9999.,-9999.,0.0000000000000000,-255.49904343097657,28.168504364419363,0.92742400218173804,5935.0602453750307,3.63939018425837695E-003,99.359171941899575,181.66025529236353,272.16016526057524
201811041930,443.47462769581148,5.8189763516901065,1.3910384488314038,0,16.383525731113792,1,-9999.,-9999.,25.748352830299556,0,-9999.,-9999.,0.94347299697311748,-306.34875296902402,-25.156572848931386,1.0752945743127440,-6353.8487344357854,-3.39951435779940010E-003,105.83270543427298,193.49593914403530,289.89217641435636
201811042000,232.75893022069522,5.8421541974012472,1.9384315296026939,0,106.34758364898308,1,-9999.,-9999.,-74.708580902532532,1,-9999.,-9999.,0.94256312565210776,-241.20739283018031,-170.39027322923332,1.2699758921884905,-1611.6377251990862,-1.34025157529318491E-002,114.38340426510415,209.12934371231421,313.31386523693658
201811042030,330.87541604554156,5.8586351639420808,3.2484339086455747,0,-997.01747243315788,1,-9999.,-9999.,2448.4752611441900,1,-9999.,-9999.,0.47077457500328629,-171.32599625596509,79.253996272148456,1.6449131790691154,373.27086527135219,5.78668254333155954E-002,138.31199691834786,252.87844271564597,378.85798767354402
201811042100,439.28656689093020,5.8996191451971765,1.5057583408235782,0,-31.661797586790705,0,-9999.,-9999.,-33.369836752670544,0,-9999.,-9999.,1.9591657898666335,-425.48716166285664,87.461954922162775,1.1206086070275787,3713.9915201242243,5.81584526592498346E-003,116.58320584259309,213.15128258669273,319.33946256397502
201811042130,436.69101230194013,5.9445671414824002,1.5074438026894594,0,-14.721642554910323,2,100.98003323302422,0,-18.295296531190104,1,2.2420335225221790,0,2.5752224154274503,1.6312961304644984,-2.0915065524261243,1.1219116583732869,8011.1340831007537,2.69624746957669234E-003,116.35737286916356,212.73838788553087,318.72087106236904
201811042200,446.07436324699296,6.0132873998411087,3.0077091653708621,0,-306.12629476605264,1,-9999.,-9999.,-36.576118967348265,1,-9999.,-9999.,3.3232161275216958,-711.67632731246852,7.5532195369328630,1.5855835362906263,1087.1326876397625,1.98687798146287391E-002,132.81688889021206,242.83163266539725,363.80603544978067
201811042230,477.79981599053684,6.0976653468033968,2.6180321691848252,0,-39.023963408403162,1,-9999.,-9999.,-151.26098628709030,0,-9999.,-9999.,4.0613137782659887,-872.65343370040966,25.507534537888429,1.4802067769543408,6935.6694739225850,3.11433526081567394E-003,126.14817070909125,230.63908895173159,345.53938319435184
201811042300,469.71060540018550,6.1517097268406822,2.3497447612087541,0,-27.170277278122178,0,-9999.,-9999.,-38.380163018381630,0,-9999.,-9999.,3.3786455205112698,-558.32973055627815,-6.4976097418000975,1.4029955013332172,8480.0907748323516,2.54714254523142475E-003,126.87743879520556,231.97242360127527,347.53696146475249
201811042330,488.83773266803769,6.1880134352856375,2.5268355463814069,0,-13.479030689751678,2,-9999.,-9999.,-74.567053139290977,0,-9999.,-9999.,3.1188401021178858,-374.72380173720728,15.352257210507453,1.4554587648290551,19080.468310730725,1.13204768605455600E-003,124.50813843314752,227.64058688983977,341.04708070702310
201811050000,463.70602685599727,6.3015179663600343,2.8396416766224770,0,-23.854783712151448,2,-9999.,-9999.,-165.36641945515359,0,-9999.,-9999.,6.2760830009397850,-1169.6975252105613,-20.144442665463984,1.5439994107667421,12867.872909896643,1.67859910890070293E-003,128.11730657400622,234.23929733646909,350.93315139855110
